User: anonymous   Login
Location: Napa Soda Springs
(38.3907°N, 122.2794°W)
Time: 06:47:43
(UTC+00:00)
Language:

Nadezhda 4 Rocket - Orbit

View from above orbital plane
View from above orbital plane
View from above satellite
View from above satellite

Ground track
Ground track

The orbit data is extracted from the following two-line orbital elements,

1 23180U 94041B   21015.51443896  .00000114  00000-0  98225-4 0  9997
2 23180  82.9451  37.4534 0029579 153.7393   0.3568 13.77986736332821
Epoch (UTC): 15 January 2021 12:20:47
Eccentricity: 0.0029579
inclination: 82.9451°
perigee height: 949 km
apogee height: 993 km
right ascension of ascending node: 37.4534°
argument of perigee: 153.7393°
revolutions per day: 13.77986736
mean anomaly at epoch: 0.3568°
orbit number at epoch: 33282

The dashed part of the orbit path shows where the satellite is in the earth's shadow,  

DLR